Home > Time Zones > World Clock > Weather > Iran > Rasht > Past weeks

Flag Weather past 2 weeks in Rasht, Iran

Now
54 °F

Light rain. Cloudy.


Feels Like: 51 °F
Forecast: 49 / 53 °F
Wind: 9 mph from North

Location: Rasht Airport

Current Time: Nov 23, 2014 at 12:18:37 PM

Latest Report: Nov 23, 2014 at 11:30 AM


Visibility: 2 mi

Pressure: 30.01 "Hg

Humidity: 100%

Dew point: 54 °F

Location of RashtLocation

Historic Weather in Rasht — Graph

°F

Rasht temperature yesterday

Maximum temperature yesterday: 61 °F (at 2:30 PM)
Minimum temperature yesterday: 52 °F (at 6:30 AM)
Average temperature yesterday: 56 °F

Past Weeks' High & Low Weather Summary

 TemperatureHumidityPressure
High64 °F (Nov 8, 2:30 PM)100% (Nov 10, 6:30 AM)30.42 "Hg (Nov 10, 6:30 AM)
Low41 °F (Nov 13, 6:30 AM)55% (Nov 13, 1:30 PM)29.74 "Hg (Nov 22, 4:30 PM)
Average56 °F87%30.22 "Hg
* Reported Nov 8 11:30 AM — Nov 23 11:30 AM, Rasht, Weather by CustomWeather, © 2014

Note: Actual official high and low records may vary slightly from our data, if they occured in-between our weather recording intervals... More about our weather records

Advertising

Rasht weather history for previous 24 hours

 ConditionsComfort  
Time TempWeatherWind HumidityBarometerVisibility
11:30 AM
Nov 23
54 °FLight rain. Cloudy.9 mph100%30.01 "Hg1 mi
11:00 AM55 °FLight rain. Cloudy.12 mph94%29.98 "Hg2 mi
10:30 AM55 °FLight rain. Cloudy.9 mph94%29.98 "Hg2 mi
10:00 AM54 °FRain. Cloudy.12 mph82%29.95 "Hg2 mi
9:30 AM54 °FCloudy.16 mph82%29.95 "Hg4 mi
9:00 AM54 °FMostly cloudy.5 mph94%29.95 "Hg4 mi
8:30 AM54 °FMostly cloudy.12 mph94%29.95 "Hg4 mi
8:00 AM54 °FMostly cloudy.12 mph94%29.92 "Hg3 mi
7:30 AM54 °FFog.12 mph100%29.89 "Hg4 mi
7:00 AM54 °FLight rain. Mostly cloudy.9 mph100%29.86 "Hg3 mi
6:30 AM54 °FLight rain. Mostly cloudy.5 mph100%29.86 "Hg2 mi
8:00 PM
Nov 22
55 °FFog.7 mph94%29.77 "Hg3 mi
7:30 PM55 °FSprinkles. Mostly cloudy.2 mph94%29.77 "Hg3 mi
7:00 PM55 °FFog.5 mph94%29.77 "Hg3 mi
6:30 PM55 °FFog.2 mph94%29.77 "Hg3 mi
6:00 PM57 °FFog.7 mph88%29.77 "Hg3 mi
5:30 PM57 °FSprinkles. Mostly cloudy.7 mph88%29.77 "Hg3 mi
5:00 PM57 °FBroken clouds.2 mph88%29.74 "Hg4 mi
4:30 PM57 °FScattered clouds.2 mph88%29.74 "Hg4 mi
4:00 PM59 °FScattered clouds.5 mph82%29.77 "Hg4 mi
3:30 PM59 °FScattered clouds.5 mph82%29.77 "Hg4 mi
3:00 PM61 °FScattered clouds.5 mph77%29.77 "Hg4 mi
2:30 PM61 °FSprinkles. Scattered clouds.No wind77%29.77 "Hg4 mi
2:00 PM59 °FFog.2 mph82%29.80 "Hg2 mi
1:30 PM59 °FFog.7 mph82%29.80 "Hg2 mi
1:00 PM59 °FFog.2 mph82%29.83 "Hg2 mi
12:30 PM59 °FFog.2 mph82%29.83 "Hg2 mi
12:00 PM57 °FFog.2 mph88%29.86 "Hg2 mi
Weather by CustomWeather, © 2014

See weather overviewHow to use our weather pages